RH
76 76 69 56 42 34 33 30 24 23 20 15 14 14 14 13 12 11 11 10 11 11 11 11 11 11 11 11 11 12 12 12 12 11 11 11 10 10 10 10 10 10
76 78 71 57 43 36 35 33 28 24 22 19 16 16 16 16 15 14 13 13 13 13 14 14 14 15 16 17 17 17 17 16 16 15 15 14 13 12 11 11 10 10
72 77 73 58 45 39 39 38 34 31 28 25 21 20 21 21 19 18 16 17 17 17 19 20 21 22 23 23 24 24 24 23 22 22 21 21 19 19 18 17 16 15
70 76 73 60 49 45 44 42 40 38 36 33 29 26 26 27 27 25 23 22 21 22 23 24 25 26 27 27 27 27 27 26 26 26 26 25 25 25 25 24 24 23
71 76 70 62 56 51 49 48 46 45 43 41 38 34 32 33 35 36 34 32 31 29 29 29 29 30 29 30 30 30 30 30 30 31 31 31 32 32 32 31 31 30
68 75 71 68 64 55 53 54 52 51 48 46 44 42 40 38 39 42 42 41 40 39 37 37 36 36 35 35 35 35 35 34 35 36 36 36 36 37 36 36 35 35
61 69 70 71 69 62 59 58 56 55 53 51 49 49 48 44 43 44 45 46 46 45 44 43 42 41 40 40 41 41 40 40 40 40 40 39 39 38 38 37 37 37
55 61 64 68 69 68 65 61 59 58 56 54 54 56 58 57 53 49 47 49 50 49 48 48 48 48 46 45 45 44 43 42 42 42 41 40 39 38 39 38 38 37
54 63 69 70 67 67 68 66 64 63 60 58 58 59 61 63 63 60 57 56 55 54 53 52 52 53 53 52 50 49 48 46 45 43 42 41 40 40 40 41 41 40
57 66 75 78 74 69 69 70 70 71 68 65 63 63 64 64 65 65 65 64 64 62 60 56 56 56 56 56 55 55 55 56 55 53 50 48 46 46 46 46 46 46
65 67 70 77 80 78 76 73 72 74 75 74 71 69 69 69 67 66 66 66 67 69 68 66 64 64 63 63 62 61 60 61 62 62 61 59 55 52 50 50 50 49
74 70 68 71 73 76 81 81 78 76 76 76 77 75 73 73 71 69 69 68 68 70 72 72 73 73 73 72 70 70 68 64 63 64 65 65 62 58 54 52 50 47
75 75 77 77 75 75 78 82 83 83 81 80 81 79 76 74 72 70 71 73 72 70 69 71 73 75 76 76 77 78 77 72 68 66 66 66 64 60 56 53 50 47
67 71 79 85 86 81 77 76 78 82 86 88 87 84 78 73 70 69 70 71 72 72 70 70 71 71 73 74 77 82 82 76 72 69 68 67 65 62 59 57 55 52
66 67 74 81 82 77 72 71 70 72 78 81 81 80 74 68 66 65 65 66 68 70 71 72 72 71 71 70 74 80 81 76 74 73 72 71 69 66 65 63 61 58
59 59 64 69 70 67 65 63 63 64 66 67 67 66 65 64 64 62 61 62 63 64 65 68 70 72 71 68 69 73 74 73 75 77 77 77 74 71 69 66 63 60
49 51 55 59 60 59 57 56 58 60 62 63 65 65 66 66 64 60 59 60 61 61 60 63 67 69 70 68 67 67 67 67 69 70 72 73 72 71 71 68 63 58
45 49 53 54 53 52 51 53 55 56 58 60 62 64 63 59 56 54 54 54 55 56 56 58 62 63 64 64 64 63 64 64 63 63 64 65 64 65 66 66 64 63
43 44 45 44 44 44 46 48 49 49 51 53 54 55 54 51 50 49 49 50 51 52 54 57 59 59 58 58 58 60 62 64 63 63 63 62 61 60 59 59 62 65
45 44 41 40 39 38 38 40 42 43 44 45 47 49 49 49 48 48 49 51 53 53 53 53 54 52 50 48 48 50 53 56 56 57 58 59 59 58 58 62 68 70
49 49 47 44 41 38 37 37 39 41 42 42 43 44 47 47 47 47 49 51 52 53 51 48 46 44 43 42 43 42 43 44 47 51 54 56 57 56 59 64 68 66
52 52 50 48 44 41 39 38 37 39 40 40 39 39 40 41 42 43 44 45 48 50 47 43 39 37 37 39 42 43 43 43 46 51 54 55 55 54 53 55 58 59
53 54 53 51 48 44 40 38 37 37 37 37 37 36 36 36 36 37 37 38 42 45 45 41 37 34 34 35 36 37 37 38 41 45 48 49 48 47 45 45 48 52
56 57 57 56 54 50 46 42 41 39 39 38 37 37 36 36 35 34 32 33 36 41 44 43 40 38 36 36 36 35 34 34 36 41 44 45 44 44 43 42 43 44
61 62 61 59 57 53 48 45 44 43 41 39 39 38 37 36 35 35 33 33 35 39 41 42 41 41 40 40 41 40 40 42 44 47 48 47 46 45 45 44 42 42
66 65 63 60 58 55 51 48 45 44 42 41 40 40 38 36 35 35 36 38 38 38 38 38 40 42 44 45 45 44 44 46 48 48 47 46 46 45 44 43 42 41